User: anonymous   Login
Location: Unspecified
(0.0000°N, 0.0000°E)
Time: 05:01:45
(UTC+00:00)
Language:

DNEPR OBJECT Y - Orbit

View from above orbital plane
View from above orbital plane
View from above satellite
View from above satellite

Ground track
Ground track

The orbit data is extracted from the following two-line orbital elements,

1 39438U 13066Y   18016.51606131  .00000165  00000-0  29151-4 0  9996
2 39438  97.6062  45.7833 0069760 313.5758  45.9674 14.77660660223880
Epoch (UTC): 16 January 2018 12:23:07
Eccentricity: 0.0069760
inclination: 97.6062°
perigee height: 588 km
apogee height: 685 km
right ascension of ascending node: 45.7833°
argument of perigee: 313.5758°
revolutions per day: 14.77660660
mean anomaly at epoch: 45.9674°
orbit number at epoch: 22388

The dashed part of the orbit path shows where the satellite is in the earth's shadow,  

DLR